SWA2454 KSAN-KLAS

Flight info

Callsign SWA2454
Flight time 0h 58m
Altitude 29000
Route PADRZ2 CHKNN SEBBY YELAH MISEN RNDRZ4
Aircraft B38M/M-SDE1FGHILORVWXY/HB1

Departure

Time 2026-05-05 03:56
Airport San Diego International Airport (KSAN)

Arrival

Time 2026-05-05 04:54
Airport Harry Reid International Airport (KLAS)
Time Latitude Longitude Altitude Speed Heading
2026-05-05 02:56 32.73330 -117.19603 25 ft 0 kts 198°
2026-05-05 03:41 32.73351 -117.19596 26 ft 4 kts 189°
2026-05-05 03:41 32.73377 -117.19590 29 ft 4 kts 202°
2026-05-05 03:42 32.73396 -117.19573 29 ft 4 kts 246°
2026-05-05 03:42 32.73398 -117.19555 26 ft 1 kts 287°
2026-05-05 03:42 32.73397 -117.19552 26 ft 0 kts 287°
2026-05-05 03:49 32.73391 -117.19555 28 ft 1 kts 187°
2026-05-05 03:50 32.73390 -117.19546 27 ft 2 kts 94°
2026-05-05 03:50 32.73373 -117.19465 26 ft 19 kts 105°
2026-05-05 03:50 32.73327 -117.19275 27 ft 24 kts 106°
2026-05-05 03:50 32.73279 -117.19075 26 ft 26 kts 106°
2026-05-05 03:51 32.73227 -117.18860 27 ft 28 kts 105°
2026-05-05 03:51 32.73172 -117.18632 27 ft 30 kts 106°
2026-05-05 03:51 32.73113 -117.18389 28 ft 31 kts 106°
2026-05-05 03:51 32.73059 -117.18164 24 ft 23 kts 106°
2026-05-05 03:52 32.73013 -117.17975 26 ft 25 kts 104°
2026-05-05 03:52 32.72977 -117.17833 24 ft 11 kts 108°
2026-05-05 03:52 32.72951 -117.17741 25 ft 13 kts 105°
2026-05-05 03:52 32.72951 -117.17699 23 ft 0 kts 77°
2026-05-05 03:54 32.72957 -117.17665 23 ft 14 kts 75°
2026-05-05 03:54 32.73025 -117.17623 25 ft 11 kts 316°
2026-05-05 03:55 32.73036 -117.17648 24 ft 0 kts 287°
2026-05-05 03:55 32.73042 -117.17670 24 ft 15 kts 286°
2026-05-05 03:55 32.73155 -117.18141 25 ft 102 kts 286°
2026-05-05 03:55 32.73422 -117.19246 49 ft 170 kts 285°
2026-05-05 03:56 32.73747 -117.20643 995 ft 171 kts 283°
2026-05-05 03:56 32.74113 -117.22065 1751 ft 193 kts 291°
2026-05-05 03:56 32.74829 -117.23525 2262 ft 221 kts 304°
2026-05-05 03:56 32.75799 -117.25062 2915 ft 242 kts 304°
2026-05-05 03:57 32.76799 -117.26673 4021 ft 240 kts 304°
2026-05-05 03:57 32.77788 -117.28288 5070 ft 244 kts 304°
2026-05-05 03:57 32.78780 -117.29921 6165 ft 242 kts 303°
2026-05-05 03:57 32.79779 -117.31558 7114 ft 248 kts 305°
2026-05-05 03:58 32.80843 -117.33194 8023 ft 252 kts 305°
2026-05-05 03:58 32.81920 -117.34855 8981 ft 255 kts 304°
2026-05-05 03:58 32.82994 -117.36517 9922 ft 258 kts 304°
2026-05-05 03:58 32.84095 -117.38225 10742 ft 262 kts 303°
2026-05-05 03:59 32.85212 -117.39961 11577 ft 266 kts 303°
2026-05-05 03:59 32.86350 -117.41730 12302 ft 275 kts 303°
2026-05-05 03:59 32.87555 -117.43604 12680 ft 296 kts 303°
2026-05-05 03:59 32.88846 -117.45613 13028 ft 315 kts 303°
2026-05-05 04:00 32.90214 -117.47744 13380 ft 333 kts 303°
2026-05-05 04:00 32.91633 -117.49954 13729 ft 333 kts 303°
2026-05-05 04:00 32.93040 -117.52146 13962 ft 333 kts 303°
2026-05-05 04:00 32.94450 -117.54343 14199 ft 334 kts 303°
2026-05-05 04:01 32.95865 -117.56548 14432 ft 336 kts 303°
2026-05-05 04:01 32.97294 -117.58776 14834 ft 342 kts 303°
2026-05-05 04:01 32.98767 -117.61075 15299 ft 355 kts 303°
2026-05-05 04:01 33.00279 -117.63436 15957 ft 360 kts 303°
2026-05-05 04:02 33.01817 -117.65765 16649 ft 368 kts 309°
2026-05-05 04:02 33.03910 -117.67588 17377 ft 382 kts 330°
2026-05-05 04:02 33.06482 -117.68552 18032 ft 396 kts 347°
2026-05-05 04:02 33.09260 -117.68753 18646 ft 403 kts 353°
2026-05-05 04:03 33.12080 -117.68954 19194 ft 407 kts 352°
2026-05-05 04:03 33.14922 -117.69187 19789 ft 410 kts 351°
2026-05-05 04:03 33.17785 -117.69436 20363 ft 414 kts 351°
2026-05-05 04:03 33.20669 -117.69692 20927 ft 418 kts 350°
2026-05-05 04:04 33.23586 -117.69954 21494 ft 421 kts 350°
2026-05-05 04:04 33.26527 -117.70219 22056 ft 425 kts 350°
2026-05-05 04:04 33.29487 -117.70486 22608 ft 429 kts 350°
2026-05-05 04:04 33.32484 -117.70756 23159 ft 432 kts 350°
2026-05-05 04:05 33.35494 -117.71027 23687 ft 436 kts 350°
2026-05-05 04:05 33.38559 -117.71031 24082 ft 449 kts
2026-05-05 04:05 33.41586 -117.69969 24512 ft 462 kts 23°
2026-05-05 04:05 33.44311 -117.67857 24864 ft 471 kts 34°
2026-05-05 04:06 33.47064 -117.65702 25159 ft 476 kts 29°
2026-05-05 04:06 33.49899 -117.63616 25553 ft 480 kts 28°
2026-05-05 04:06 33.52772 -117.61530 25898 ft 486 kts 28°
2026-05-05 04:06 33.55680 -117.59434 26238 ft 490 kts 28°
2026-05-05 04:07 33.58589 -117.57341 26570 ft 495 kts 28°
2026-05-05 04:07 33.61556 -117.55206 26922 ft 500 kts 28°
2026-05-05 04:07 33.64552 -117.53048 27251 ft 505 kts 28°
2026-05-05 04:07 33.67581 -117.50865 27565 ft 510 kts 28°
2026-05-05 04:08 33.70637 -117.48661 27889 ft 514 kts 28°
2026-05-05 04:08 33.73718 -117.46436 28216 ft 518 kts 28°
2026-05-05 04:08 33.76821 -117.44192 28549 ft 523 kts 28°
2026-05-05 04:08 33.79965 -117.41920 28780 ft 528 kts 28°
2026-05-05 04:09 33.83122 -117.39635 29022 ft 533 kts 28°
2026-05-05 04:09 33.86325 -117.37317 29026 ft 541 kts 28°
2026-05-05 04:09 33.92852 -117.32589 29006 ft 550 kts 28°
2026-05-05 04:10 33.99388 -117.27836 29005 ft 548 kts 28°
2026-05-05 04:10 34.05861 -117.23122 29034 ft 546 kts 28°
2026-05-05 04:11 34.12357 -117.18381 29048 ft 545 kts 28°
2026-05-05 04:11 34.18845 -117.13640 29027 ft 544 kts 28°
2026-05-05 04:12 34.25301 -117.08911 29023 ft 542 kts 28°
2026-05-05 04:12 34.31736 -117.04190 28986 ft 540 kts 28°
2026-05-05 04:13 34.38143 -116.99481 28956 ft 538 kts 28°
2026-05-05 04:13 34.44522 -116.94784 28938 ft 536 kts 28°
2026-05-05 04:14 34.50887 -116.90089 28933 ft 535 kts 28°
2026-05-05 04:14 34.57247 -116.85389 28917 ft 534 kts 28°
2026-05-05 04:15 34.63562 -116.80714 28924 ft 534 kts 28°
2026-05-05 04:15 34.69894 -116.76017 28921 ft 533 kts 28°
2026-05-05 04:16 34.76218 -116.71319 28941 ft 533 kts 28°
2026-05-05 04:16 34.82560 -116.66600 28926 ft 532 kts 28°
2026-05-05 04:17 34.88566 -116.61398 28939 ft 535 kts 36°
2026-05-05 04:17 34.94400 -116.55773 28912 ft 534 kts 36°
2026-05-05 04:18 35.00226 -116.50122 28904 ft 534 kts 36°
2026-05-05 04:18 35.03121 -116.47308 28191 ft 530 kts 36°
2026-05-05 04:18 35.06023 -116.44485 27149 ft 535 kts 37°
2026-05-05 04:19 35.08888 -116.41697 26675 ft 527 kts 37°
2026-05-05 04:19 35.11567 -116.38694 26121 ft 521 kts 46°
2026-05-05 04:19 35.14035 -116.35476 25547 ft 515 kts 46°
2026-05-05 04:19 35.16486 -116.32312 24996 ft 509 kts 46°
2026-05-05 04:20 35.18902 -116.29186 24455 ft 496 kts 46°
2026-05-05 04:20 35.21234 -116.26166 23940 ft 479 kts 46°
2026-05-05 04:20 35.23450 -116.23200 23369 ft 466 kts 47°
2026-05-05 04:20 35.25580 -116.20283 22768 ft 452 kts 47°
2026-05-05 04:21 35.27670 -116.17433 22283 ft 447 kts 47°
2026-05-05 04:21 35.29716 -116.14645 21825 ft 443 kts 47°
2026-05-05 04:21 35.31763 -116.11851 21336 ft 440 kts 48°
2026-05-05 04:21 35.33789 -116.09047 20812 ft 438 kts 51°
2026-05-05 04:22 35.35596 -116.06106 20713 ft 425 kts 53°
2026-05-05 04:22 35.37343 -116.03251 20644 ft 412 kts 53°
2026-05-05 04:22 35.39048 -116.00492 20589 ft 400 kts 53°
2026-05-05 04:22 35.40737 -115.97773 20499 ft 408 kts 53°
2026-05-05 04:23 35.42479 -115.94971 20408 ft 416 kts 53°
2026-05-05 04:23 35.44245 -115.92131 20264 ft 420 kts 53°
2026-05-05 04:23 35.46015 -115.89283 19913 ft 418 kts 53°
2026-05-05 04:23 35.47794 -115.86419 19506 ft 427 kts 53°
2026-05-05 04:24 35.48993 -115.84486 19285 ft 431 kts 53°
2026-05-05 04:24 35.50814 -115.81550 18939 ft 432 kts 53°
2026-05-05 04:24 35.52635 -115.78612 18887 ft 433 kts 53°
2026-05-05 04:25 35.56261 -115.72752 18495 ft 426 kts 53°
2026-05-05 04:25 35.58066 -115.69831 17706 ft 431 kts 53°
2026-05-05 04:25 35.59896 -115.66868 16744 ft 438 kts 53°
2026-05-05 04:25 35.61731 -115.63894 16026 ft 433 kts 53°
2026-05-05 04:26 35.63510 -115.61008 15404 ft 427 kts 54°
2026-05-05 04:26 35.65293 -115.58115 14895 ft 422 kts 54°
2026-05-05 04:26 35.67056 -115.55250 14410 ft 418 kts 54°
2026-05-05 04:26 35.68800 -115.52414 13921 ft 413 kts 54°
2026-05-05 04:27 35.70526 -115.49604 13402 ft 410 kts 54°
2026-05-05 04:27 35.72237 -115.46817 12885 ft 405 kts 54°
2026-05-05 04:27 35.73928 -115.44062 12410 ft 401 kts 54°
2026-05-05 04:27 35.75600 -115.41334 11925 ft 397 kts 55°
2026-05-05 04:28 35.77254 -115.38634 11467 ft 392 kts 55°
2026-05-05 04:28 35.78806 -115.36100 11246 ft 382 kts 55°
2026-05-05 04:28 35.80388 -115.33512 11072 ft 371 kts 55°
2026-05-05 04:28 35.81918 -115.31008 10879 ft 361 kts 55°
2026-05-05 04:29 35.83404 -115.28576 10717 ft 350 kts 55°
2026-05-05 04:29 35.84849 -115.26208 10560 ft 341 kts 56°
2026-05-05 04:29 35.86255 -115.23902 10394 ft 331 kts 56°
2026-05-05 04:29 35.87619 -115.21664 10238 ft 322 kts 56°
2026-05-05 04:30 35.88931 -115.19510 10070 ft 315 kts 56°
2026-05-05 04:30 35.90246 -115.17351 9715 ft 314 kts 56°
2026-05-05 04:30 35.91555 -115.15197 9359 ft 313 kts 56°
2026-05-05 04:30 35.92858 -115.13054 9025 ft 311 kts 56°
2026-05-05 04:31 35.94153 -115.10924 8683 ft 309 kts 55°
2026-05-05 04:31 35.95431 -115.08819 8480 ft 300 kts 55°
2026-05-05 04:31 35.96644 -115.06822 8350 ft 281 kts 56°
2026-05-05 04:31 35.97788 -115.04934 8228 ft 270 kts 55°
2026-05-05 04:32 35.98899 -115.03103 8113 ft 262 kts 56°
2026-05-05 04:32 35.99725 -115.01162 7838 ft 252 kts 82°
2026-05-05 04:32 35.99841 -114.99043 7555 ft 245 kts 94°
2026-05-05 04:32 35.99855 -114.96953 7272 ft 242 kts 94°
2026-05-05 04:33 35.99863 -114.94881 7023 ft 240 kts 93°
2026-05-05 04:33 36.00181 -114.92855 6707 ft 246 kts 64°
2026-05-05 04:33 36.01288 -114.91303 6473 ft 246 kts 34°
2026-05-05 04:33 36.02774 -114.90284 6201 ft 244 kts 17°
2026-05-05 04:34 36.04419 -114.90202 5864 ft 232 kts 338°
2026-05-05 04:34 36.05786 -114.91068 5637 ft 214 kts 323°
2026-05-05 04:34 36.06902 -114.92158 5325 ft 196 kts 297°
2026-05-05 04:34 36.07256 -114.93672 5040 ft 177 kts 268°
2026-05-05 04:35 36.07306 -114.95151 4836 ft 169 kts 270°
2026-05-05 04:35 36.07352 -114.96590 4629 ft 166 kts 268°
2026-05-05 04:35 36.07364 -114.98002 4449 ft 167 kts 267°
2026-05-05 04:35 36.07365 -114.99435 4242 ft 166 kts 267°
2026-05-05 04:36 36.07365 -115.00852 4004 ft 161 kts 266°
2026-05-05 04:36 36.07366 -115.02182 3807 ft 147 kts 266°
2026-05-05 04:36 36.07366 -115.03419 3578 ft 141 kts 267°
2026-05-05 04:36 36.07366 -115.04613 3402 ft 135 kts 267°
2026-05-05 04:37 36.07365 -115.05765 3240 ft 134 kts 266°
2026-05-05 04:37 36.07365 -115.06931 3065 ft 137 kts 267°
2026-05-05 04:37 36.07361 -115.08101 2856 ft 136 kts 265°
2026-05-05 04:37 36.07360 -115.09267 2649 ft 137 kts 266°
2026-05-05 04:38 36.07357 -115.10440 2530 ft 136 kts 265°
2026-05-05 04:38 36.07371 -115.11570 2405 ft 126 kts 264°
2026-05-05 04:38 36.07370 -115.12686 2786 ft 139 kts 266°
2026-05-05 04:38 36.07371 -115.13965 3365 ft 155 kts 267°
2026-05-05 04:39 36.07381 -115.15298 4132 ft 155 kts 272°
2026-05-05 04:39 36.07797 -115.16618 4590 ft 186 kts 311°
2026-05-05 04:39 36.09053 -115.17282 5090 ft 217 kts 353°
2026-05-05 04:39 36.10554 -115.16752 5292 ft 238 kts 34°
2026-05-05 04:40 36.11543 -115.15112 5380 ft 243 kts 75°
2026-05-05 04:40 36.11555 -115.13076 5460 ft 237 kts 113°
2026-05-05 04:40 36.10695 -115.11400 5601 ft 231 kts 135°
2026-05-05 04:40 36.09729 -115.09765 5751 ft 238 kts 127°
2026-05-05 04:41 36.08852 -115.08043 5905 ft 240 kts 125°
2026-05-05 04:41 36.08006 -115.06261 5996 ft 240 kts 124°
2026-05-05 04:41 36.07195 -115.04460 6002 ft 239 kts 123°
2026-05-05 04:41 36.06409 -115.02655 5988 ft 238 kts 122°
2026-05-05 04:42 36.05637 -115.00849 5982 ft 238 kts 122°
2026-05-05 04:42 36.04871 -114.99040 5984 ft 237 kts 122°
2026-05-05 04:42 36.04111 -114.97230 5998 ft 237 kts 122°
2026-05-05 04:42 36.03354 -114.95418 6005 ft 237 kts 122°
2026-05-05 04:43 36.02596 -114.93602 6010 ft 238 kts 122°
2026-05-05 04:43 36.01837 -114.91781 6011 ft 238 kts 122°
2026-05-05 04:43 36.01082 -114.89967 6004 ft 238 kts 122°
2026-05-05 04:43 36.00336 -114.88175 6002 ft 237 kts 122°
2026-05-05 04:44 35.99593 -114.86355 6001 ft 239 kts 117°
2026-05-05 04:44 35.99163 -114.84357 6003 ft 243 kts 103°
2026-05-05 04:44 35.98916 -114.82287 6008 ft 243 kts 102°
2026-05-05 04:44 35.98660 -114.80221 6017 ft 244 kts 103°
2026-05-05 04:45 35.98397 -114.78151 6011 ft 244 kts 103°
2026-05-05 04:45 35.98127 -114.76082 6007 ft 244 kts 104°
2026-05-05 04:45 35.97529 -114.74189 5924 ft 231 kts 133°
2026-05-05 04:45 35.96308 -114.73061 5937 ft 218 kts 167°
2026-05-05 04:46 35.94832 -114.72956 6010 ft 214 kts 195°
2026-05-05 04:46 35.93510 -114.73749 6019 ft 213 kts 221°
2026-05-05 04:46 35.92652 -114.75230 6002 ft 216 kts 248°
2026-05-05 04:46 35.92477 -114.77088 5986 ft 225 kts 275°
2026-05-05 04:47 35.93072 -114.78882 5994 ft 233 kts 304°
2026-05-05 04:47 35.94299 -114.80201 6025 ft 240 kts 319°
2026-05-05 04:47 35.95622 -114.81462 6019 ft 239 kts 317°
2026-05-05 04:47 35.96923 -114.82728 5969 ft 234 kts 317°
2026-05-05 04:48 35.98181 -114.83959 5859 ft 226 kts 316°
2026-05-05 04:48 35.99373 -114.85131 5840 ft 210 kts 315°
2026-05-05 04:48 36.00474 -114.86220 5807 ft 195 kts 315°
2026-05-05 04:48 36.01512 -114.87256 5784 ft 190 kts 315°
2026-05-05 04:49 36.02531 -114.88282 5786 ft 189 kts 314°
2026-05-05 04:49 36.03556 -114.89312 5791 ft 191 kts 317°
2026-05-05 04:49 36.04669 -114.90226 5808 ft 193 kts 322°
2026-05-05 04:49 36.05803 -114.91103 5794 ft 191 kts 322°
2026-05-05 04:50 36.06776 -114.92150 5735 ft 180 kts 294°
2026-05-05 04:50 36.07122 -114.93577 5792 ft 174 kts 275°
2026-05-05 04:50 36.07293 -114.95065 5769 ft 175 kts 270°
2026-05-05 04:50 36.07355 -114.96569 5401 ft 174 kts 267°
2026-05-05 04:51 36.07365 -114.98039 5005 ft 174 kts 266°
2026-05-05 04:51 36.07365 -114.99558 4531 ft 177 kts 267°
2026-05-05 04:51 36.07365 -115.01087 3988 ft 181 kts 267°
2026-05-05 04:51 36.07366 -115.02601 3614 ft 166 kts 266°
2026-05-05 04:52 36.07366 -115.03894 3475 ft 139 kts 266°
2026-05-05 04:52 36.07369 -115.05023 3314 ft 133 kts 267°
2026-05-05 04:52 36.07463 -115.06205 3077 ft 139 kts 277°
2026-05-05 04:52 36.07590 -115.07373 2913 ft 137 kts 272°
2026-05-05 04:53 36.07637 -115.08533 2777 ft 135 kts 268°
2026-05-05 04:53 36.07636 -115.09689 2590 ft 136 kts 265°
2026-05-05 04:53 36.07637 -115.10862 2419 ft 135 kts 265°
2026-05-05 04:53 36.07644 -115.12024 2299 ft 133 kts 266°
2026-05-05 04:54 36.07641 -115.13157 2198 ft 124 kts 266°
2026-05-05 04:54 36.07636 -115.13995 2193 ft 66 kts 268°
2026-05-05 04:54 36.07636 -115.14313 2191 ft 30 kts 272°
2026-05-05 04:54 36.07648 -115.14573 2191 ft 30 kts 287°
2026-05-05 04:55 36.07735 -115.14661 2192 ft 0 kts 343°
2026-05-05 04:55 36.07745 -115.14664 2192 ft 3 kts 343°
2026-05-05 04:55 36.07768 -115.14680 2192 ft 5 kts 324°
2026-05-05 04:56 36.07791 -115.14700 2191 ft 0 kts 324°
2026-05-05 04:56 36.07829 -115.14720 2193 ft 11 kts
2026-05-05 04:56 36.07856 -115.14707 2192 ft 1 kts 18°
2026-05-05 04:56 36.07867 -115.14703 2190 ft 0 kts 17°
2026-05-05 04:57 36.07885 -115.14702 2193 ft 7 kts
2026-05-05 04:57 36.07894 -115.14701 2190 ft 0 kts
2026-05-05 04:58 36.07900 -115.14700 2192 ft 2 kts 11°
2026-05-05 04:58 36.07919 -115.14692 2192 ft 4 kts 21°
2026-05-05 04:58 36.07940 -115.14680 2192 ft 1 kts 26°
2026-05-05 04:58 36.07954 -115.14672 2192 ft 1 kts 26°
2026-05-05 04:59 36.07958 -115.14669 2191 ft 0 kts 27°